Flag for Morocco Weather past 2 weeks in Tangier, Morocco

Now
72 °F

Partly sunny.


Feels Like: 72 °F
Forecast: 69 / 77 °F
Wind: 14 mph from Southwest

Location: Tanger Aerodrome

Current Time: Sep 17, 2014 at 9:07:41 AM

Latest Report: Sep 17, 2014 at 8:30 AM


Visibility: N/A

Pressure: 29.83 "Hg

Humidity: 78%

Dew point: 64 °F

Location of TangierLocation

Historic Weather in Tangier — Graph

°F

Tangier temperature yesterday

Maximum temperature yesterday: 82 °F (at 11:00 AM)
Minimum temperature yesterday: 63 °F (at 2:00 AM)
Average temperature yesterday: 72 °F

Past Weeks' High & Low Weather Summary

 TemperatureHumidityPressure
High84 °F (Sep 15, 1:30 PM)94% (Sep 9, 4:30 AM)30.07 "Hg (Sep 9, 4:30 AM)
Low63 °F (Sep 5, 4:30 AM)37% (Sep 16, 11:00 AM)29.77 "Hg (Sep 16, 4:30 AM)
Average73 °F75%29.98 "Hg
* Reported Sep 2 8:00 AM — Sep 17 8:00 AM, Tangier, Weather by CustomWeather, © 2014

Note: Actual official high and low records may vary slightly from our data, if they occured in-between our weather recording intervals... More about our weather records

Advertising

Tangier weather history for previous 24 hours

 ConditionsComfort  
Time TempWeatherWind HumidityBarometerVisibility
8:00 AM
Sep 17
70 °FPartly sunny.13 mph83%29.83 "HgN/A
7:30 AM70 °FPartly sunny.13 mph83%29.83 "HgN/A
7:00 AM70 °FPassing clouds.12 mph83%29.83 "Hg5 mi
6:30 AM70 °FPassing clouds.12 mph83%29.83 "Hg4 mi
6:00 AM72 °FPassing clouds.14 mph83%29.83 "Hg5 mi
5:30 AM72 °FPassing clouds.10 mph83%29.83 "Hg5 mi
5:00 AM72 °FPassing clouds.13 mph83%29.83 "Hg5 mi
4:30 AM72 °FMild.10 mph83%29.83 "HgN/A
4:00 AM72 °FPassing clouds.10 mph83%29.83 "HgN/A
3:30 AM72 °FPassing clouds.6 mph83%29.83 "HgN/A
3:00 AM72 °FPassing clouds.9 mph78%29.83 "Hg5 mi
2:30 AM72 °FPassing clouds.9 mph78%29.83 "HgN/A
2:00 AM72 °FPassing clouds.12 mph78%29.86 "HgN/A
1:30 AM73 °FPassing clouds.8 mph78%29.86 "HgN/A
1:00 AM73 °FPassing clouds.8 mph78%29.86 "Hg5 mi
12:30 AM73 °FPassing clouds.12 mph78%29.86 "Hg5 mi
12:00 AM72 °FPassing clouds.8 mph83%29.86 "Hg5 mi
11:30 PM
Sep 16
72 °FPassing clouds.9 mph78%29.86 "Hg5 mi
11:00 PM72 °FPassing clouds.7 mph78%29.86 "Hg5 mi
10:30 PM72 °FPassing clouds.7 mph78%29.86 "Hg5 mi
10:00 PM73 °FPassing clouds.8 mph78%29.86 "Hg5 mi
9:30 PM73 °FPassing clouds.10 mph78%29.86 "Hg5 mi
9:00 PM73 °FPassing clouds.9 mph78%29.83 "Hg5 mi
8:30 PM73 °FPassing clouds.10 mph78%29.83 "HgN/A
8:00 PM73 °FPassing clouds.9 mph83%29.83 "HgN/A
7:00 PM75 °FBroken clouds.14 mph74%29.83 "HgN/A
6:30 PM77 °FBroken clouds.17 mph69%29.83 "HgN/A
6:00 PM77 °FBroken clouds.17 mph69%29.83 "HgN/A
5:30 PM77 °FBroken clouds.17 mph69%29.83 "HgN/A
5:00 PM79 °FBroken clouds.21 mph65%29.83 "HgN/A
4:30 PM79 °FBroken clouds.22 mph65%29.83 "HgN/A
4:00 PM81 °FBroken clouds.21 mph62%29.83 "HgN/A
3:30 PM79 °FPartly sunny.24 mph65%29.83 "Hg5 mi
3:00 PM79 °FPartly sunny.21 mph61%29.83 "Hg5 mi
2:30 PM81 °FBroken clouds.21 mph58%29.83 "Hg5 mi
2:00 PM79 °FBroken clouds.23 mph61%29.83 "Hg5 mi
1:30 PM79 °FBroken clouds.20 mph61%29.83 "Hg5 mi
12:00 PM81 °FBroken clouds.20 mph48%29.86 "HgN/A
11:30 AM82 °FBroken clouds.21 mph40%29.86 "HgN/A
11:00 AM82 °FBroken clouds.16 mph37%29.83 "HgN/A
10:30 AM79 °FBroken clouds.12 mph42%29.83 "HgN/A
10:00 AM77 °FLight rain. Broken clouds.7 mph54%29.83 "HgN/A
9:30 AM77 °FScattered clouds.3 mph57%29.83 "HgN/A
9:00 AM73 °FScattered clouds.5 mph69%29.83 "HgN/A
Weather by CustomWeather, © 2014

See weather overviewHow to use our weather pages